Retour au catalogue

THORAD AGENA D DEB

ActifPO
NORAD 5000·DEBRIS·🇺🇸 United States

Lancé Apr 8, 1970 depuis Vandenberg Space Force Base

Loading…

Prochains Passages (prochaines 24 heures)

TLE

FraisSource: Space-Track

Époque: Sep 14, 2026, 03:45 UTC

1 05000U 70025HW  26257.15670959  .00000545  00000-0  17823-2 0  9990
2 05000  99.7800 133.5407 0488745 126.4315  24.6412 12.70715410602961

Suivez THORAD AGENA D DEB en temps réel avec AllMySat

Download on the App Store